Simultaneous Nadir Overpasses (SNOs) Predictions

Prediction of SNOs between GOES-14 and NPP Satellite Orbit:

Table of predicted SNOs for the next 14.0 days since TLE Epoch: 9/20/2019
Index Date Time (GOES-14) GOES-14 Lat,Lon NPP Lat,Lon Distance(km) Time Diff (sec)
1 09/21/2019 20:33:39 -0.32,-104.27 -1.01,-107.24 338.98 80
2 09/22/2019 20:17:34 -0.32,-104.27 0.02,-102.71 177.99 80
3 09/24/2019 08:39:23 0.30,-104.21 1.12,-107.98 429.68 80
4 09/25/2019 08:17:57 0.31,-104.19 0.15,-103.44 85.34 80
5 09/27/2019 20:23:49 -0.30,-104.23 -0.29,-104.22 2.01 80
6 09/30/2019 08:26:52 0.29,-104.19 0.47,-104.95 86.36 80
7 10/01/2019 08:05:27 0.30,-104.18 -0.56,-100.42 429.05 80
8 10/02/2019 20:27:24 -0.28,-104.21 -0.60,-105.73 172.52 80
9 10/03/2019 20:11:18 -0.29,-104.21 0.38,-101.18 344.80 80




NCC Satellite Simultaneous Nadir Overpasses (SNOs) Prediction Service
